Regional Weather Roundup
Issued by NWS

Home | Current Version | Previous Version | Graphics & Text | Print | Product List | Glossary On
Versions: 1 2 3 4 5 6 7 8 9 10 11 12 13 14 15 16 17 18 19 20 21 22 23 24 25 26 27 28 29 30 31 32 33 34 35 36 37 38 39 40 41 42 43 44 45 46 47 48 49 50
000
ASUS43 KFSD 070310
RWRSD

WEATHER ROUNDUP FOR SOUTH DAKOTA
NATIONAL WEATHER SERVICE SIOUX FALLS SD
900 PM CST TUE DEC 06 2016

NOTE: "FAIR" INDICATES FEW OR NO CLOUDS BELOW 12,000 FEET WITH NO
SIGNIFICANT WEATHER AND/OR OBSTRUCTIONS TO VISIBILITY.


SDZ001>005-009-010-012>017-070400-
NORTHWEST AND NORTH CENTRAL SOUTH DAKOTA

CITY           SKY/WX    TMP DP  RH WIND       PRES   REMARKS
BUFFALO          N/A      5  -3  69 NW22      30.01R WCI -16
FAITH            N/A      4  -2  76 NW18      30.07S WCI -16
MOBRIDGE       PTCLDY     8  -2  63 NW24G37   30.04R WCI -13
$$

SDZ012>016-024>037-041>051-057-063-072>074-070400-
SOUTHWEST AND SOUTH CENTRAL SOUTH DAKOTA

CITY           SKY/WX    TMP DP  RH WIND       PRES   REMARKS
RAPID CTY ARPT CLEAR      4  -2  76 N15       30.07R WCI -14
PIERRE         PTCLDY    11   3  70 NW37G43   30.06R WCI -13
CUSTER         CLOUDY     3  -5  69 S6        29.87R WCI  -8
ELLSWORTH AFB  CLEAR      6  -2  71 N16       30.06R WCI -13
PHILIP         CLEAR      7  -1  70 NW18      30.12R WCI -12
PINE RIDGE     CLOUDY     1  -3  83 NE3       30.06R
SPEARFISH      FAIR       1  -4  78 NW10      30.04R WCI -14
WINNER         FAIR      11   3  70 W12       30.11R WCI  -3
$$

SDZ004>011-016>023-039-040-070400-
NORTHEAST SOUTH DAKOTA

CITY           SKY/WX    TMP DP  RH WIND       PRES   REMARKS
ABERDEEN       CLOUDY    11   1  64 W28G43    29.96R WCI -10
WATERTOWN      CLOUDY    10   5  80 W17G33    29.89R WCI  -8
BROOKINGS      CLEAR     10   4  76 W28G33    29.93R WCI -12
SISSETON         N/A     14   7  73 NW32G44   29.83R WCI  -7
$$

SDZ017-020-022-023-036>040-048>070-070400-
SOUTHEAST SOUTH DAKOTA

CITY           SKY/WX    TMP DP  RH WIND       PRES   REMARKS
SIOUX FALLS    CLEAR     13   5  70 W23G33    30.01R WCI  -6
HURON          CLEAR     11   4  73 NW21G33   30.05R WCI  -8
CHAMBERLAIN    CLEAR     12   5  71 NW23G30   30.09R WCI  -7
MITCHELL       CLEAR     13   5  70 NW16G30   30.08R WCI  -3
YANKTON        CLEAR     16   5  62 W22       30.08R WCI  -2
$$

ABBREVIATIONS USED IN REMARKS
   TC - TEMPERATURE IN CELSIUS
  WCI - WIND CHILL INDEX
   HX - HEAT INDEX
  VSB - VISIBILITY





USA.gov is the U.S. government's official web portal to all federal, state and local government web resources and services.